Location: Munkebjergskolens Observatorium
(55.3864°N, 10.3987°E)
Time: 03:37:10
(UTC+02:00)

CAS-6 - Pass Details

Date: 07 April 2023
Orbit: 610 x 632 km, 97.9° (Epoch: 31 May)

Event Time Altitude Azimuth Distance (km) Brightness Sun altitude
Exits shadow 01:06:54 12° 277° (W) 1,882 ? -27.9°
Drops below altitude 10° 01:08:32 10° 299° (WNW) 2,013 ? -27.9°
Sets 01:12:13 0° 331° (NNW) 2,933 ? -27.9°
